Location: *
(43.6428°N, 11.5461°E)
Time: 11:15:39
(UTC+00:00)

Cosmos 1953 - Pass Details

Date: 21 October 2019
Orbit: 538 x 559 km, 82.5° (Epoch: 20 November)

Event Time Altitude Azimuth Distance (km) Brightness Sun altitude
Rises 17:03:48 0° 209° (SSW) 2,733 6.4 -8.4°
Reaches altitude 10° 17:06:07 10° 218° (SW) 1,843 5.7 -8.8°
Maximum altitude 17:09:50 34° 284° (WNW) 943 4.3 -9.5°
Drops below altitude 10° 17:13:34 10° 350° (N) 1,854 5.1 -10.1°
Sets 17:15:54 0° 0° (N) 2,753 5.8 -10.5°
